This demonstration page uses our WeatherBlox Daily Observations layout. Learn more.

Left ArrowRight Arrow

38.20091, -84.87328

Hourly Observations for September 15, 2021

Temp ( °F °C ) Dew Point ( °F °C ) Humidity (%) Winds ( mph kmh ) Pressure ( in mb ) Visibility ( mi km ) Precip ( " mm )
12:53 am 00:53 Mostly Cloudy 75 23.9 70 21.1 84 84 SSW 6 9 29.91 1013 10 16 0.00 0.00
1:53 am 01:53 Partly Cloudy 75 23.9 70 21.1 84 84 S 7 11 29.92 1013 10 16 0.00 0.00
2:53 am 02:53 Partly Cloudy 74 23.3 70 21.1 88 88 S 7 11 29.89 1012 10 16 0.00 0.00
3:53 am 03:53 Mostly Cloudy 73 22.8 70 21.1 90 90 SW 6 9 29.89 1012 10 16 0.00 0.00
4:53 am 04:53 Cloudy 73 22.8 70 21.1 90 90 SW 7 11 29.89 1012 10 16 0.00 0.00
5:53 am 05:53 Clear 72 22.2 70 21.1 94 94 SW 9 15 29.89 1012 10 16 0.00 0.00
6:53 am 06:53 Mostly Cloudy 72 22.2 70 21.1 94 94 WSW 7 11 29.92 1013 10 16 0.00 0.00
7:10 am 07:10 Partly Cloudy 72 22.2 70 21.1 94 94 WSW 5 7 29.92 1013 10 16 0.00 0.00
7:37 am 07:37 Mostly Cloudy 73 22.8 70 21.1 90 90 W 6 9 29.92 1013 10 16 0.00 0.00
7:53 am 07:53 Cloudy 73 22.8 70 21.1 90 90 Calm 29.93 1013 10 16 0.00 0.00
8:53 am 08:53 Cloudy 73 22.8 70 21.1 90 90 S 9 15 29.95 1014 10 16 0.00 0.00
9:24 am 09:24 Mostly Cloudy 73 22.8 70 21.1 90 90 W 3 6 29.95 1014 10 16 0.00 0.00
9:53 am 09:53 Cloudy 72 22.2 70 21.1 94 94 WSW 7 11 29.97 1015 10 16 0.00 0.00
10:06 am 10:06 Mostly Cloudy 72 22.2 70 21.1 94 94 SW 5 7 29.95 1014 10 16 0.00 0.00
10:36 am 10:36 Mostly Sunny 72 22.2 69 20.6 91 91 SSW 8 13 29.96 1015 10 16 0.00 0.00
10:48 am 10:48 Mostly Cloudy 73 23 70 21 89 89 S 9 15 29.96 1015 10 16 0.00 0.00
10:53 am 10:53 Mostly Cloudy 73 22.8 69 20.6 87 87 SSW 7 11 29.97 1015 10 16 0.00 0.00
11:37 am 11:37 Mostly Cloudy 74 23.3 70 21.1 88 88 WSW 5 7 29.97 1015 10 16 0.00 0.00
11:53 am 11:53 Partly Cloudy 75 23.9 70 21.1 84 84 S 5 7 29.97 1015 10 16 0.00 0.00
12:53 pm 12:53 Mostly Cloudy 76 24.4 70 21.1 82 82 S 9 15 29.98 1015 10 16 0.00 0.00
1:53 pm 13:53 Mostly Sunny 78 25.6 70 21.1 76 76 S 5 7 29.96 1015 10 16 0.00 0.00
2:36 pm 14:36 Mostly Cloudy 80 26.7 69 20.6 69 69 SSW 6 9 29.94 1014 10 16 0.00 0.00
2:53 pm 14:53 Mostly Cloudy 80 26.7 70 21.1 71 71 S 8 13 29.95 1014 10 16 0.00 0.00
3:07 pm 15:07 Partly Cloudy 81 27.2 69 20.6 67 67 S 7 11 29.94 1014 10 16 0.00 0.00
3:53 pm 15:53 Partly Cloudy 80 26.7 69 20.6 69 69 S 12 19 29.93 1014 10 16 0.00 0.00
4:53 pm 16:53 Partly Cloudy with Nearby Thunderstorms 78 25.6 68 20 71 71 S 8 13 29.93 1013 10 16 0.00 0.00
5:02 pm 17:02 Mostly Cloudy 77 25 68 20 74 74 SSE 7 11 29.92 1013 10 16 0.00 0.00
5:12 pm 17:12 Cloudy 77 25 68 20 74 74 SSE 7 11 29.92 1013 10 16 0.00 0.00
5:39 pm 17:39 Cloudy with Heavy Rain 73 22.8 70 21.1 90 90 N 7 11 29.95 1014 2 2 0.07 1.78
5:53 pm 17:53 Cloudy with Rain 72 22.2 70 21.1 94 94 NNE 8 13 29.97 1015 1 2 0.20 5.08
5:59 pm 17:59 Cloudy with Heavy Rain 72 22.2 70 21.1 94 94 NNE 6 9 29.96 1015 1 1 0.14 3.56
6:10 pm 18:10 Cloudy with Heavy Rain 72 22.2 71 21.7 97 97 Calm 29.97 1015 1 1 0.26 6.60
6:17 pm 18:17 Cloudy with Strong Thunderstorms 71 21.7 70 21.1 96 96 Calm 29.98 1015 0 0 0.47 11.94
6:24 pm 18:24 Cloudy with Strong Thunderstorms 71 21.7 70 21.1 96 96 Calm 29.98 1015 0 0 0.62 15.75
6:32 pm 18:32 Cloudy with Strong Thunderstorms 71 21.7 70 21.1 96 96 Calm 29.99 1015 1 1 0.73 18.54
6:40 pm 18:40 Cloudy with Nearby Thunderstorms 70 21.1 69 20.6 97 97 NNW 3 6 29.98 1015 1 2 0.77 19.56
6:42 pm 18:42 Cloudy with Nearby Thunderstorms 71 21.7 69 20.6 94 94 NNW 3 6 29.98 1015 1 2 0.77 19.56
6:46 pm 18:46 Cloudy with Nearby Thunderstorms 71 21.7 69 20.6 94 94 NNW 3 6 29.98 1015 3 5 0.78 19.81
6:53 pm 18:53 Cloudy with Nearby Thunderstorms 70 21.1 69 20.6 97 97 Calm 29.97 1015 5 8 0.78 19.81
7:00 pm 19:00 Cloudy with Light Rain 70 21.1 69 20.6 97 97 N 5 7 29.97 1015 8 13 0.00 0.00
7:53 pm 19:53 Mostly Cloudy 71 21.7 69 20.6 94 94 SE 5 7 29.96 1015 10 16 0.00 0.00
8:36 pm 20:36 Partly Cloudy 70 21.1 69 20.6 97 97 Calm 29.98 1015 8 13 0.00 0.00
8:53 pm 20:53 Partly Cloudy 69 20.6 68 20 96 96 ENE 3 6 29.98 1015 10 16 0.00 0.00
9:53 pm 21:53 Mostly Clear with Mist and Fog 68 20 67 19.4 96 96 Calm 30.01 1016 5 8 0.00 0.00
10:11 pm 22:11 Clear with Mist and Fog 67 19.4 66 18.9 97 97 Calm 30.02 1017 2 3 0.00 0.00
10:14 pm 22:14 Clear with Mist and Fog 66 18.9 66 18.9 100 100 Calm 30.02 1017 1 1 0.00 0.00
10:24 pm 22:24 Clear with Mist and Fog 67 19.4 67 19.4 100 100 Calm 30.02 1017 1 2 0.00 0.00
10:33 pm 22:33 Clear with Mist and Fog 67 19.4 67 19.4 100 100 E 3 6 30.02 1017 1 1 0.00 0.00
10:40 pm 22:40 Mostly Cloudy with Fog 66 18.9 66 18.9 100 100 Calm 30.02 1017 0 0 0.00 0.00
10:53 pm 22:53 Mostly Cloudy with Fog 67 19.4 66 18.9 97 97 Calm 30.02 1017 1 1 0.00 0.00
11:19 pm 23:19 Mostly Cloudy with Fog 66 18.9 65 18.3 96 96 Calm 30.02 1017 1 1 0.00 0.00
11:26 pm 23:26 Mostly Cloudy with Mist and Fog 67 19.4 66 18.9 97 97 Calm 30.02 1017 1 2 0.00 0.00
11:49 pm 23:49 Cloudy with Fog 66 19 64 18 94 94 Calm 30.02 1017 1 1 0.00 0.00
11:53 pm 23:53 Cloudy with Fog 66 18.9 66 18.9 100 100 Calm 30.02 1017 1 1 0.00 0.00

Powered by AerisWeather